Tracking 19242 objects as of 20-Sep-2018
HD Live streaming from Space Station
objects crossing your sky now

FENGYUN 1C DEB

Track FENGYUN 1C DEB now!
10-day predictions


NORAD ID: 37068
Int'l Code: 1999-025EFC
Perigee: 500.8 km
Apogee: 634.0 km
Inclination: 98.6 °
Period: 95.9 minutes
Semi major axis: 6938 km
RCS: 0.0108 m2 (small)
Launch date: May 10, 1999
Source: People's Republic of China (PRC)
Launch site: Taiyaun Space Center, China (TSC)

Note: This is SATELLITE DEBRIS
aabbcc
Your satellite tracking list
Your tracking list is empty




NASA's NSSDC Master Catalog

Two Line Element Set (TLE):
1 37068U 99025EFC 18262.28908612 +.00005628 +00000-0 +39295-3 0  9996
2 37068 098.6275 071.8690 0095944 309.9230 049.3589 15.02148948518566
Source of the keplerian elements: AFSPC